Torna al catalogo

KUIPER-00607

AttivoComunicazioniLEO
NORAD 69290·PAYLOAD·🇺🇸 United States

Lanciato May 29, 2026 da Vandenberg Space Force Base

Loading…

Prossimi Passaggi (prossime 24 ore)

TLE

AggiornatoSource: CelesTrak SupGP

Epoca: Sep 14, 2026, 22:51 UTC

1 69290C 26118Z   26257.95263889  .00002080  00000+0  27224-3 0  2572
2 69290  51.9014 348.7329 0001279   7.3039 262.6853 14.79930832    14

Traccia KUIPER-00607 in tempo reale con AllMySat

Download on the App Store